Location: Albany
(35.0000°S, 118.0000°E)
Time: 16:19:11
(UTC-05:00)

Transit 2A - Visible Passes

Search period start: 17 January 2017 00:00
Search period end: 27 January 2017 00:00
Orbit: 600 x 960 km, 66.7° (Epoch: 17 January)

Date Brightness Start Highest point End Pass type
(mag) Time Alt. Az. Time Alt. Az. Time Alt. Az.
17 Jan 8.9 08:11:15 10° WSW 08:14:15 14° WNW 08:17:15 10° NW visible
18 Jan 8.6 07:35:58 10° WSW 07:40:31 21° WNW 07:45:03 10° NNW visible
19 Jan 8.2 07:01:16 10° SW 07:06:44 30° WNW 07:12:07 10° NNW visible
22 Jan 9.2 07:05:02 10° W 07:07:24 12° W 07:09:45 10° WNW visible
